Terminal Aerodrome Forecast
Issued by NWS Lake Charles, LA

Home | Current Version | Previous Version | Text Only | Print | Product List | Glossary On
Versions: 1 2 3 4 5 6 7 8 9 10 11 12 13 14 15 16 17 18 19 20
000
FTUS44 KLCH 240900 AAA
TAFLFT
TAF AMD
KLFT 240900Z 2409/2506 00000KT 2SM BR BKN003
      TEMPO 2409/2413 1/4SM FG VV002
     FM241500 18008KT P6SM BKN025 BKN250
     FM241800 19011G19KT P6SM SCT035 BKN250
     FM250000 19008KT P6SM BKN020=

USA.gov is the U.S. government's official web portal to all federal, state and local government web resources and services.